User: anonymous   Login
Location: Maiden
(35.5760°N, 81.2120°W)
Time: 10:46:46
(UTC-04:00)
Language:

Tiros 1 despin weight - Orbit

View from above orbital plane
View from above orbital plane
View from above satellite
View from above satellite

Ground track
Ground track

The orbit data is extracted from the following two-line orbital elements,

1   115U 60002D   20216.80388561 -.00000029 +00000-0 +23692-4 0  9993
2   115 048.1672 046.5402 0034330 097.4703 263.0112 14.83595739198840
Epoch (UTC): 03 August 2020 19:17:35
Eccentricity: 0.0034330
inclination: 48.1672°
perigee height: 594 km
apogee height: 642 km
right ascension of ascending node: 46.5402°
argument of perigee: 97.4703°
revolutions per day: 14.83595739
mean anomaly at epoch: 263.0112°
orbit number at epoch: 19884

The dashed part of the orbit path shows where the satellite is in the earth's shadow,  

DLR